Regional Weather Roundup
Issued by NWS Sterling, VA

Home | Current Version | Previous Version | Graphics & Text | Print | Product List | Glossary On
Versions: 1 2 3 4 5 6 7 8 9 10 11 12 13 14 15 16 17 18 19 20 21 22 23 24 25 26 27
000
ASUS41 KLWX 221211
RWRLWX

REGIONAL WEATHER ROUNDUP
NATIONAL WEATHER SERVICE BALTIMORE MD/WASHINGTON DC
800 AM EDT SUN OCT 22 2017

Note: "FAIR" indicates few or no clouds below 12,000 feet
with no significant weather and/or obstructions to visibility.
 TC=TEMPERATURE CELSIUS

 * =Non NWS site. Station does not report precipitation (e.g. rain,
    snow, etc.), thunder, or fog.

DCZ001-MDZ009-015-VAZ040>042-051-053>054-221300-
WASHINGTON METRO

CITY           SKY/WX    TMP DP  RH WIND       PRES   REMARKS
WASHINGTON NAT MOCLDY    55  51  86 E6        30.39S
DULLES         PTCLDY    46  46 100 CALM      30.38S
ANDREWS AFB    CLEAR     46  44  93 CALM      30.38R
FT BELVOIR     CLEAR     46  45  96 CALM      30.38S
QUANTICO       PTCLDY    51  51 100 NW6       30.39S
COLLEGE PARK*  PTCLDY    46  45  97 CALM      30.39R
LEESBURG*      CLEAR     46  46 100 CALM      30.39R
MANASSAS*      CLEAR     44  43  96 CALM      30.38S
GAITHERSBURG*  CLEAR     49  45  86 CALM      30.39R

$$

MDZ006>007-011-014-221300-
BALTIMORE METRO

CITY           SKY/WX    TMP DP  RH WIND       PRES   REMARKS
BWI AIRPORT    PTCLDY    47  46  97 CALM      30.39R
MD SCIENCE CTR   N/A     57  50  77 MISG      30.40R
MARTIN STATE   CLEAR     48  48 100 CALM      30.41R
ANNAPOLIS      CLOUDY    55  55 100 CALM      30.39R
FORT MEADE*    PTCLDY    41  41 100 CALM      30.41R

$$

MDZ012-015-019>023-221300-
MARYLAND EASTERN SHORE

CITY           SKY/WX    TMP DP  RH WIND       PRES   REMARKS
OCEAN CITY     CLEAR     49  49 100 CALM      30.41R
SALISBURY      FOG       47  47 100 E3        30.40R VSB 1
CAMBRIDGE*     CLEAR     46  46 100 CALM      30.40R
EASTON*        MOCLDY    50  48  93 CALM      30.43R

$$

MDZ017>025-221300-
SOUTHERN MARYLAND

CITY           SKY/WX    TMP DP  RH WIND       PRES   REMARKS
PATUXENT RIVER MOCLDY    51  51 100 CALM      30.39R
ST INIGOES     FOG       51  50  96 CALM      30.39R VSB 1/2
LEONARDTOWN*   NOT AVBL

$$

MDZ003>005-221300-
NORTH CENTRAL MARYLAND

CITY           SKY/WX    TMP DP  RH WIND       PRES   REMARKS
FREDERICK*     CLEAR     45  45 100 CALM      30.41S
HAGERSTOWN APT PTCLDY    49  44  83 NW5       30.37R
WESTMINSTER*   PTCLDY    50  45  81 CALM      30.38S

$$

MDZ501>502-221300-
WESTERN MARYLAND

CITY           SKY/WX    TMP DP  RH WIND       PRES   REMARKS
OAKLAND*       CLOUDY    50  46  87 SE6       30.34R
CUMBERLAND*    CLEAR     46  46 100 CALM      30.40S

$$

VAZ025>031-221300-
SHENANDOAH VALLEY

CITY           SKY/WX    TMP DP  RH WIND       PRES   REMARKS
WINCHESTER*    CLEAR     43  43 100 NW3       30.36S
FRONT ROYAL*   CLEAR     46  46 100 MISG      30.36R
LURAY*         CLEAR     46  46 100 CALM      30.37R FOG
NEW MARKET*    CLEAR     43  42  96 CALM      30.37R
STAUNTON*      FOG       41  41  99 CALM      30.40R VSB 1/2
WAYNESBORO*    CLEAR     47  47  99 CALM      30.38R

$$

WVZ021-048>050-054>055-221300-
EASTERN WEST VIRGINIA PANHANDLE

CITY           SKY/WX    TMP DP  RH WIND       PRES   REMARKS
MARTINSBURG    PTCLDY    48  44  86 N3        30.36R
PETERSBURG*    FOG       43  43  99 CALM      30.37R VSB<1/4

$$

VAZ036>039-050-221300-
CENTRAL FOOTHILLS

CITY           SKY/WX    TMP DP  RH WIND       PRES   REMARKS
CHARLOTTESVILL CLEAR     51  49  92 W3        30.37R
CULPEPER*      CLEAR     44  42  95 CALM      30.39R FOG
ORANGE*        FOG       45  45 100 CALM      30.37R VSB 1/2
GORDONSVILLE*  CLEAR     46  46 100 CALM      30.37R
WARRENTON*     CLEAR     43  40  89 CALM      30.37R

$$

VAZ055>057-221300-
NORTH AND CENTRAL PIEDMONT

CITY           SKY/WX    TMP DP  RH WIND       PRES   REMARKS
FREDERICKSBRG* CLEAR     47  47 100 CALM      30.38R
STAFFORD*      CLEAR     44  44 100 CALM      30.42S

$$

NCZ024-NYZ072-PAZ021-071-VAZ022-071-221300-
OTHER REGIONAL OBSERVATIONS

CITY           SKY/WX    TMP DP  RH WIND       PRES   REMARKS
NEW YORK CITY  PTCLDY    58  51  78 CALM      30.42R
PHILADELPHIA   FOG       52  50  93 CALM      30.41R VSB 1/4
PITTSBURGH     PTCLDY    49  47  93 SE3       30.29S
ROANOKE        PTCLDY    48  47  96 CALM      30.39R
RICHMOND       PTCLDY    50  50 100 CALM      30.38R
RALEIGH        MOCLDY    52  52 100 CALM      30.36R

$$

ANZ530>537-221300-
MARINE OBSERVATIONS

STATION/POSITION TIME  TEMP    WIND        PRES
                       AIR SEA DIR/SP/G
                 (UTC) (F)     (DEG/KT/KT) (MB)
THOMAS PT LIGHT  1200   62 68     CALM       N/A
BALT KEY BRIDGE  1148   57      40/  3/  4 1028.9R
COVE POINT       1148   62     300/  2/  3 1029.8R
LEWISETTA        1148   57 66  270/  3/  3 1028.8R
SOLOMONS ISLAND  1148   58 69  330/  4/  4 1028.8R
PINEY POINT      1142             CALM       N/A

$$





USA.gov is the U.S. government's official web portal to all federal, state and local government web resources and services.